"Period start","avg(HW err(1)/warn(2) (#))","avg(Visibility (m))","avg(Weather code (#))","avg(Precip intensity (mm/h))","min(HW err(1)/warn(2) (#))","max(HW err(1)/warn(2) (#))","std(HW err(1)/warn(2) (#))","med(HW err(1)/warn(2) (#))","min(Visibility (m))","max(Visibility (m))","std(Visibility (m))","med(Visibility (m))","min(Weather code (#))","max(Weather code (#))","std(Weather code (#))","med(Weather code (#))","min(Precip intensity (mm/h))","max(Precip intensity (mm/h))","std(Precip intensity (mm/h))","med(Precip intensity (mm/h))"
2014-04-18 00:00:00,1,,,,1,1,0,1,,,,,,,,,,,,
2014-04-18 00:10:00,1,,,,1,1,0,1,,,,,,,,,,,,
2014-04-18 00:20:00,1,,,,1,1,0,1,,,,,,,,,,,,
2014-04-18 00:30:00,1,,,,1,1,0,1,,,,,,,,,,,,
2014-04-18 00:40:00,1,,,,1,1,0,1,,,,,,,,,,,,
2014-04-18 00:50:00,1,,,,1,1,0,1,,,,,,,,,,,,
2014-04-18 01:00:00,1,,,,1,1,0,1,,,,,,,,,,,,
2014-04-18 01:10:00,1,,,,1,1,0,1,,,,,,,,,,,,
2014-04-18 01:20:00,1,,,,1,1,0,1,,,,,,,,,,,,
2014-04-18 01:30:00,1,,,,1,1,0,1,,,,,,,,,,,,
2014-04-18 01:40:00,1,,,,1,1,0,1,,,,,,,,,,,,
2014-04-18 01:50:00,1,,,,1,1,0,1,,,,,,,,,,,,
2014-04-18 02:00:00,1,,,,1,1,0,1,,,,,,,,,,,,
2014-04-18 02:10:00,1,,,,1,1,0,1,,,,,,,,,,,,
2014-04-18 02:20:00,2,10744,,0.00,1,2,0,2,0,14412,4868,12464,,,,,0.00,0.00,0.00,0.00
2014-04-18 02:30:00,2,9254,4,0.00,1,2,0,2,5580,11888,2330,9451,0,10,5,0,0.00,0.00,0.00,0.00
2014-04-18 02:40:00,2,12584,9,0.00,2,2,0,2,6360,20241,4849,10156,0,10,3,10,0.00,0.00,0.00,0.00
2014-04-18 02:50:00,2,17899,2,0.00,1,2,0,2,0,28950,8100,17750,0,10,4,0,0.00,0.00,0.00,0.00
2014-04-18 03:00:00,1,28533,0,0.00,1,2,0,1,0,50000,22041,32066,0,0,0,0,0.00,0.00,0.00,0.00
2014-04-18 03:10:00,2,11892,,0.00,1,2,0,2,10246,13653,1204,11924,,,,,0.00,0.00,0.00,0.00
2014-04-18 03:20:00,2,23479,0,0.00,1,2,0,2,15685,38167,6850,21471,0,0,0,0,0.00,0.00,0.00,0.00
2014-04-18 03:30:00,2,15214,0,0.00,1,2,0,2,9187,26298,5826,13837,0,0,0,0,0.00,0.00,0.00,0.00
2014-04-18 03:40:00,2,18909,0,0.00,2,2,0,2,0,33480,9356,18564,0,0,0,0,0.00,0.00,0.00,0.00
2014-04-18 03:50:00,2,10069,0,0.00,1,2,0,2,6506,18800,3471,9715,0,0,0,0,0.00,0.00,0.00,0.00
2014-04-18 04:00:00,2,14900,3,0.00,2,2,0,2,0,48016,14009,12730,0,10,5,0,0.00,0.00,0.00,0.00
2014-04-18 04:10:00,2,11643,0,0.00,2,2,0,2,7673,17863,3114,11140,0,0,0,0,0.00,0.00,0.00,0.00
2014-04-18 04:20:00,2,3523,0,0.00,1,2,0,2,0,6579,2925,4943,0,0,0,0,0.00,0.00,0.00,0.00
2014-04-18 04:30:00,2,4167,10,0.00,1,2,0,2,2298,6675,1334,3891,10,10,0,10,0.00,0.00,0.00,0.00
2014-04-18 04:40:00,2,3314,10,0.00,1,2,0,2,2474,4230,481,3320,10,10,0,10,0.00,0.00,0.00,0.00
2014-04-18 04:50:00,2,8492,10,0.00,2,2,0,2,3995,13589,2825,8852,10,10,0,10,0.00,0.00,0.00,0.00
2014-04-18 05:00:00,2,5643,10,0.00,1,2,0,2,3317,7952,1321,5855,10,10,0,10,0.00,0.00,0.00,0.00
2014-04-18 05:10:00,2,5196,10,0.00,1,2,0,2,0,7788,2490,5830,10,10,0,10,0.00,0.00,0.00,0.00
2014-04-18 05:20:00,2,5215,10,0.00,1,2,0,2,0,7710,3061,6848,10,10,0,10,0.00,0.00,0.00,0.00
2014-04-18 05:30:00,1,5540,10,0.00,1,2,0,1,0,9812,3575,6173,10,10,0,10,0.00,0.00,0.00,0.00
2014-04-18 05:40:00,1,3853,,0.00,1,2,0,1,0,11560,5449,0,,,,,0.00,0.00,0.00,0.00
2014-04-18 05:50:00,2,7686,,0.00,1,2,0,2,0,14894,4485,7295,,,,,0.00,0.00,0.00,0.00
2014-04-18 06:00:00,2,2806,10,0.00,2,2,0,2,1361,4812,1219,2522,10,10,0,10,0.00,0.00,0.00,0.00
2014-04-18 06:10:00,2,1743,10,0.00,2,2,0,2,1106,2065,297,1790,10,10,0,10,0.00,0.00,0.00,0.00
2014-04-18 06:20:00,2,2414,10,0.00,2,2,0,2,1730,3211,411,2448,10,10,0,10,0.00,0.00,0.00,0.00
2014-04-18 06:30:00,2,2088,10,0.00,2,2,0,2,1326,2838,457,1984,10,10,0,10,0.00,0.00,0.00,0.00
2014-04-18 06:40:00,2,2082,29,0.00,2,2,0,2,1212,3141,591,1806,10,77,29,10,0.00,0.00,0.00,0.00
2014-04-18 06:50:00,2,2207,10,0.00,2,2,0,2,1518,2521,310,2322,10,10,0,10,0.00,0.00,0.00,0.00
2014-04-18 07:00:00,2,1964,10,0.00,2,2,0,2,1094,2865,573,1858,10,10,0,10,0.00,0.00,0.00,0.00
2014-04-18 07:10:00,2,2432,10,0.00,2,2,0,2,1363,4153,875,1932,10,10,0,10,0.00,0.00,0.00,0.00
2014-04-18 07:20:00,2,4182,10,0.00,2,2,0,2,2713,6364,1215,3772,10,10,0,10,0.00,0.00,0.00,0.00
2014-04-18 07:30:00,2,5362,10,0.00,2,2,0,2,3468,7702,1282,5022,10,10,0,10,0.00,0.00,0.00,0.00
2014-04-18 07:40:00,2,5757,10,0.00,2,2,0,2,3287,7588,1411,6078,10,10,0,10,0.00,0.00,0.00,0.00
2014-04-18 07:50:00,2,3518,10,0.00,2,2,0,2,1798,5504,1266,3026,10,10,0,10,0.00,0.00,0.00,0.00
2014-04-18 08:00:00,2,3113,10,0.00,2,2,0,2,2120,4753,849,2715,10,10,0,10,0.00,0.00,0.00,0.00
2014-04-18 08:10:00,2,3254,29,0.01,2,2,0,2,2055,4107,566,3222,10,77,29,10,0.00,0.05,0.02,0.00
2014-04-18 08:20:00,2,2741,10,0.00,2,2,0,2,2164,3573,432,2682,10,10,0,10,0.00,0.00,0.00,0.00
2014-04-18 08:30:00,2,3885,10,0.00,2,2,0,2,3019,4697,489,3905,10,10,0,10,0.00,0.00,0.00,0.00
2014-04-18 08:40:00,2,4743,16,0.01,2,2,0,2,2761,7458,1545,4913,10,71,18,10,0.00,0.05,0.02,0.00
2014-04-18 08:50:00,2,3654,30,0.01,2,2,0,2,2464,5586,990,3476,10,77,30,10,0.00,0.05,0.02,0.00
2014-04-18 09:00:00,2,4421,28,0.03,2,2,0,2,2053,6186,997,4451,10,71,28,10,0.00,0.25,0.08,0.00
2014-04-18 09:10:00,2,4218,10,0.00,2,2,0,2,2533,6373,1083,4038,10,10,0,10,0.00,0.00,0.00,0.00
2014-04-18 09:20:00,2,4918,10,0.00,2,2,0,2,3299,8626,1449,4476,10,10,0,10,0.00,0.00,0.00,0.00
2014-04-18 09:30:00,2,6938,10,0.00,2,2,0,2,5079,10278,1794,6414,10,10,0,10,0.00,0.00,0.00,0.00
2014-04-18 09:40:00,2,16920,8,0.00,2,2,0,2,9790,25914,5297,15083,0,10,4,10,0.00,0.00,0.00,0.00
2014-04-18 09:50:00,2,8519,3,0.00,2,2,0,2,3712,14140,3637,8339,0,10,5,0,0.00,0.00,0.00,0.00
2014-04-18 10:00:00,2,6537,10,0.00,2,2,0,2,4921,7868,844,6466,10,10,0,10,0.00,0.00,0.00,0.00
2014-04-18 10:10:00,2,13191,10,0.00,2,2,0,2,10238,16485,1791,13049,10,10,0,10,0.00,0.00,0.00,0.00
2014-04-18 10:20:00,2,14318,1,0.00,2,2,0,2,10477,16944,1912,14587,0,10,3,0,0.00,0.00,0.00,0.00
2014-04-18 10:30:00,2,27800,0,0.00,2,2,0,2,14102,38586,8870,27373,0,0,0,0,0.00,0.00,0.00,0.00
2014-04-18 10:40:00,2,31497,0,0.00,2,2,0,2,27834,36383,2803,30876,0,0,0,0,0.00,0.00,0.00,0.00
2014-04-18 10:50:00,2,23560,0,0.00,2,2,0,2,14053,28531,3947,24175,0,0,0,0,0.00,0.00,0.00,0.00
2014-04-18 11:00:00,2,27764,0,0.00,2,2,0,2,20553,33599,3660,28394,0,0,0,0,0.00,0.00,0.00,0.00
2014-04-18 11:10:00,2,23475,0,0.00,2,2,0,2,7937,36139,10171,25616,0,0,0,0,0.00,0.00,0.00,0.00
2014-04-18 11:20:00,2,17621,0,0.00,2,2,0,2,9392,23957,4562,17842,0,0,0,0,0.00,0.00,0.00,0.00
2014-04-18 11:30:00,2,18931,0,0.00,2,2,0,2,11353,30144,6211,18958,0,0,0,0,0.00,0.00,0.00,0.00
2014-04-18 11:40:00,2,14655,0,0.00,2,2,0,2,8358,26193,4442,14073,0,0,0,0,0.00,0.00,0.00,0.00
2014-04-18 11:50:00,2,16244,0,0.00,2,2,0,2,12185,22163,3565,15132,0,0,0,0,0.00,0.00,0.00,0.00
2014-04-18 12:00:00,2,20947,0,0.00,2,2,0,2,8582,30717,7334,22896,0,0,0,0,0.00,0.00,0.00,0.00
2014-04-18 12:10:00,2,38751,0,0.00,2,2,0,2,28671,49009,6171,40574,0,0,0,0,0.00,0.00,0.00,0.00
2014-04-18 12:20:00,2,44141,0,0.00,2,2,0,2,38006,50000,4407,42070,0,0,0,0,0.00,0.00,0.00,0.00
2014-04-18 12:30:00,2,44233,0,0.00,2,2,0,2,37481,50000,4327,44064,0,0,0,0,0.00,0.00,0.00,0.00
2014-04-18 12:40:00,2,47429,0,0.00,2,2,0,2,43706,50000,2625,48518,0,0,0,0,0.00,0.00,0.00,0.00
2014-04-18 12:50:00,2,47214,0,0.00,2,2,0,2,42540,50000,2890,48149,0,0,0,0,0.00,0.00,0.00,0.00
2014-04-18 13:00:00,2,46693,0,0.00,2,2,0,2,41393,50000,2903,47098,0,0,0,0,0.00,0.00,0.00,0.00
2014-04-18 13:10:00,2,49260,0,0.00,2,2,0,2,46672,50000,952,49498,0,0,0,0,0.00,0.00,0.00,0.00
2014-04-18 13:20:00,2,48108,0,0.00,2,2,0,2,43485,50000,2059,48820,0,0,0,0,0.00,0.00,0.00,0.00
2014-04-18 13:30:00,2,49706,0,0.00,2,2,0,2,48807,50000,461,50000,0,0,0,0,0.00,0.00,0.00,0.00
2014-04-18 13:40:00,2,49171,0,0.00,2,2,0,2,47109,50000,968,49700,0,0,0,0,0.00,0.00,0.00,0.00
2014-04-18 13:50:00,2,49490,0,0.00,2,2,0,2,47810,50000,759,50000,0,0,0,0,0.00,0.00,0.00,0.00
2014-04-18 14:00:00,2,49579,0,0.00,2,2,0,2,47834,50000,843,50000,0,0,0,0,0.00,0.00,0.00,0.00
2014-04-18 14:10:00,2,47972,0,0.00,2,2,0,2,43957,50000,2074,48402,0,0,0,0,0.00,0.00,0.00,0.00
2014-04-18 14:20:00,2,47952,0,0.00,2,2,0,2,40754,50000,3039,50000,0,0,0,0,0.00,0.00,0.00,0.00
2014-04-18 14:30:00,2,48360,0,0.00,2,2,0,2,44870,50000,1962,49196,0,0,0,0,0.00,0.00,0.00,0.00
2014-04-18 14:40:00,2,48193,0,0.00,2,2,0,2,45819,50000,1409,48009,0,0,0,0,0.00,0.00,0.00,0.00
2014-04-18 14:50:00,2,49241,0,0.00,2,2,0,2,44355,50000,1729,50000,0,0,0,0,0.00,0.00,0.00,0.00
2014-04-18 15:00:00,2,49175,0,0.00,2,2,0,2,45085,50000,1688,50000,0,0,0,0,0.00,0.00,0.00,0.00
2014-04-18 15:10:00,2,47986,0,0.00,2,2,0,2,41689,50000,2611,49212,0,0,0,0,0.00,0.00,0.00,0.00
2014-04-18 15:20:00,2,49653,0,0.00,2,2,0,2,47857,50000,718,50000,0,0,0,0,0.00,0.00,0.00,0.00
2014-04-18 15:30:00,2,49294,0,0.00,2,2,0,2,45160,50000,1451,50000,0,0,0,0,0.00,0.00,0.00,0.00
2014-04-18 15:40:00,2,49869,0,0.00,2,2,0,2,48688,50000,394,50000,0,0,0,0,0.00,0.00,0.00,0.00
2014-04-18 15:50:00,2,48973,0,0.00,2,2,0,2,46866,50000,1151,49563,0,0,0,0,0.00,0.00,0.00,0.00
2014-04-18 16:00:00,2,49733,0,0.00,2,2,0,2,48587,50000,508,50000,0,0,0,0,0.00,0.00,0.00,0.00
2014-04-18 16:10:00,2,48567,0,0.00,2,2,0,2,44956,50000,2043,50000,0,0,0,0,0.00,0.00,0.00,0.00
2014-04-18 16:20:00,2,48753,0,0.00,2,2,0,2,43073,50000,2047,49710,0,0,0,0,0.00,0.00,0.00,0.00
2014-04-18 16:30:00,2,49676,0,0.00,2,2,0,2,48373,50000,649,50000,0,0,0,0,0.00,0.00,0.00,0.00
2014-04-18 16:40:00,2,50000,0,0.00,2,2,0,2,50000,50000,0,50000,0,0,0,0,0.00,0.00,0.00,0.00
2014-04-18 16:50:00,2,49075,0,0.00,2,2,0,2,46625,50000,1193,49955,0,0,0,0,0.00,0.00,0.00,0.00
2014-04-18 17:00:00,2,49634,0,0.00,2,2,0,2,47416,50000,767,50000,0,0,0,0,0.00,0.00,0.00,0.00
2014-04-18 17:10:00,2,50000,0,0.00,2,2,0,2,50000,50000,0,50000,0,0,0,0,0.00,0.00,0.00,0.00
2014-04-18 17:20:00,2,50000,0,0.00,2,2,0,2,50000,50000,0,50000,0,0,0,0,0.00,0.00,0.00,0.00
2014-04-18 17:30:00,2,50000,0,0.00,2,2,0,2,50000,50000,0,50000,0,0,0,0,0.00,0.00,0.00,0.00
2014-04-18 17:40:00,2,49977,0,0.00,2,2,0,2,49770,50000,69,50000,0,0,0,0,0.00,0.00,0.00,0.00
2014-04-18 17:50:00,2,49137,0,0.00,2,2,0,2,45873,50000,1551,50000,0,0,0,0,0.00,0.00,0.00,0.00
2014-04-18 18:00:00,2,49985,0,0.00,2,2,0,2,49849,50000,45,50000,0,0,0,0,0.00,0.00,0.00,0.00
2014-04-18 18:10:00,2,49940,0,0.00,2,2,0,2,49395,50000,182,50000,0,0,0,0,0.00,0.00,0.00,0.00
2014-04-18 18:20:00,2,49562,0,0.00,2,2,0,2,48167,50000,684,50000,0,0,0,0,0.00,0.00,0.00,0.00
2014-04-18 18:30:00,2,49649,0,0.00,2,2,0,2,47750,50000,713,50000,0,0,0,0,0.00,0.00,0.00,0.00
2014-04-18 18:40:00,2,50000,0,0.00,2,2,0,2,50000,50000,0,50000,0,0,0,0,0.00,0.00,0.00,0.00
2014-04-18 18:50:00,2,49952,0,0.00,2,2,0,2,49757,50000,84,50000,0,0,0,0,0.00,0.00,0.00,0.00
2014-04-18 19:00:00,2,50000,0,0.00,2,2,0,2,50000,50000,0,50000,0,0,0,0,0.00,0.00,0.00,0.00
2014-04-18 19:10:00,2,49752,0,0.00,2,2,0,2,48015,50000,597,50000,0,0,0,0,0.00,0.00,0.00,0.00
2014-04-18 19:20:00,2,50000,0,0.00,2,2,0,2,49995,50000,2,50000,0,0,0,0,0.00,0.00,0.00,0.00
2014-04-18 19:30:00,2,49379,0,0.00,2,2,0,2,48103,50000,732,49794,0,0,0,0,0.00,0.00,0.00,0.00
2014-04-18 19:40:00,2,49231,0,0.00,2,2,0,2,47399,50000,954,49803,0,0,0,0,0.00,0.00,0.00,0.00
2014-04-18 19:50:00,2,49605,0,0.00,2,2,0,2,47172,50000,877,50000,0,0,0,0,0.00,0.00,0.00,0.00
2014-04-18 20:00:00,2,48219,0,0.00,2,2,0,2,44544,50000,1969,49160,0,0,0,0,0.00,0.00,0.00,0.00
2014-04-18 20:10:00,2,48341,0,0.00,2,2,0,2,44138,50000,2450,50000,0,0,0,0,0.00,0.00,0.00,0.00
2014-04-18 20:20:00,2,44732,0,0.00,2,2,0,2,36578,50000,4208,43554,0,0,0,0,0.00,0.00,0.00,0.00
2014-04-18 20:30:00,2,47620,0,0.00,2,2,0,2,39067,50000,3523,49824,0,0,0,0,0.00,0.00,0.00,0.00
2014-04-18 20:40:00,2,48517,0,0.00,2,2,0,2,42582,50000,2895,50000,0,0,0,0,0.00,0.00,0.00,0.00
2014-04-18 20:50:00,2,46433,0,0.00,2,2,0,2,39979,50000,3178,46573,0,0,0,0,0.00,0.00,0.00,0.00
2014-04-18 21:00:00,2,46036,0,0.00,2,2,0,2,34529,50000,4712,48188,0,0,0,0,0.00,0.00,0.00,0.00
2014-04-18 21:10:00,2,45496,0,0.00,2,2,0,2,36917,50000,3797,46476,0,0,0,0,0.00,0.00,0.00,0.00
2014-04-18 21:20:00,2,40390,0,0.00,2,2,0,2,28417,48941,6614,40384,0,0,0,0,0.00,0.00,0.00,0.00
2014-04-18 21:30:00,2,42138,0,0.00,2,2,0,2,31300,48325,5411,44490,0,0,0,0,0.00,0.00,0.00,0.00
2014-04-18 21:40:00,2,45324,0,0.00,2,2,0,2,39044,50000,3699,44750,0,0,0,0,0.00,0.00,0.00,0.00
2014-04-18 21:50:00,2,41975,0,0.00,2,2,0,2,32507,50000,6157,40958,0,0,0,0,0.00,0.00,0.00,0.00
2014-04-18 22:00:00,2,43515,0,0.00,2,2,0,2,36817,48974,3906,43405,0,0,0,0,0.00,0.00,0.00,0.00
2014-04-18 22:10:00,2,38015,0,0.00,2,2,0,2,26607,49178,7703,37528,0,0,0,0,0.00,0.00,0.00,0.00
2014-04-18 22:20:00,2,43713,0,0.00,2,2,0,2,34842,50000,4580,42452,0,0,0,0,0.00,0.00,0.00,0.00
2014-04-18 22:30:00,2,43746,0,0.00,2,2,0,2,34388,50000,6144,45616,0,0,0,0,0.00,0.00,0.00,0.00
2014-04-18 22:40:00,2,43613,0,0.00,2,2,0,2,33153,50000,4999,43992,0,0,0,0,0.00,0.00,0.00,0.00
2014-04-18 22:50:00,2,43528,0,0.00,2,2,0,2,33858,50000,6260,44046,0,0,0,0,0.00,0.00,0.00,0.00
2014-04-18 23:00:00,2,37705,0,0.00,2,2,0,2,33297,47161,3727,37398,0,0,0,0,0.00,0.00,0.00,0.00
2014-04-18 23:10:00,2,39793,0,0.00,2,2,0,2,28446,49669,7766,39054,0,0,0,0,0.00,0.00,0.00,0.00
2014-04-18 23:20:00,2,36336,0,0.00,2,2,0,2,29489,41730,3898,36708,0,0,0,0,0.00,0.00,0.00,0.00
2014-04-18 23:30:00,2,40613,0,0.00,2,2,0,2,20779,50000,7980,41954,0,0,0,0,0.00,0.00,0.00,0.00
2014-04-18 23:40:00,2,45022,0,0.00,2,2,0,2,28586,50000,7845,48655,0,0,0,0,0.00,0.00,0.00,0.00
2014-04-18 23:50:00,2,40586,0,0.00,2,2,0,2,30489,50000,7320,40921,0,0,0,0,0.00,0.00,0.00,0.00
